Regional Weather Roundup
Issued by NWS

Home | Current Version | Previous Version | Graphics & Text | Print | Product List | Glossary On
Versions: 1 2 3 4 5 6 7 8 9 10 11 12 13 14 15 16 17 18 19 20 21 22 23 24 25 26 27 28
000
ASUS45 KBOU 311507
RWRCO

WEATHER ROUNDUP FOR COLORADO
NATIONAL WEATHER SERVICE DENVER/BOULDER CO
900 AM MDT FRI OCT 31 2014

NOTE: "FAIR" INDICATES FEW OR NO CLOUDS BELOW 12000 FEET WITH NO
SIGNIFICANT WEATHER AND/OR OBSTRUCTIONS TO VISIBILITY.

COZ001>005-013-030-031-311600-
...NORTHWEST COLORADO...

CITY           SKY/WX    TMP DP  RH WIND       PRES   REMARKS
CRAIG          SUNNY     33  28  81 SW3       30.25R
HAYDEN         MOSUNNY   37  25  60 E12       30.26R
MEEKER         MOSUNNY   36  28  73 N3        30.25S
MOUNT WERNER   NOT AVBL
STEAMBOAT SPGS MOSUNNY   32  26  77 CALM      30.28S
WALDEN         SUNNY     23  19  86 CALM      30.32S
$$

COZ006>008-011-311600-
...WEST CENTRAL VALLEYS...

CITY           SKY/WX    TMP DP  RH WIND       PRES   REMARKS
GRAND JUNCTION MOSUNNY   46  28  49 SE9       30.20R
MONTROSE       PTSUNNY   40  25  55 S6        30.28R
EAGLE          MOSUNNY   30  27  86 CALM      30.38S
RIFLE          MOSUNNY   36  27  69 CALM      30.27R
DELTA          PTSUNNY   45  27  48 NE5       30.27R
NUCLA          PTSUNNY   41  23  48 SE5       30.31S
$$

COZ017>023-064>068-311600-
...SOUTHWEST COLORADO...

CITY           SKY/WX    TMP DP  RH WIND       PRES   REMARKS
DURANGO        PTSUNNY   37  27  67 CALM      30.37R
CORTEZ         SUNNY     50  23  34 MISG      30.30R
PAGOSA SPRINGS PTSUNNY   38  24  57 CALM      30.43R
TELLURIDE      MOSUNNY   45  15  30 E7        30.42S
WOLF CREEK PAS MOSUNNY   34  14  44 SW12G17   30.55R WCI  25
$$

COZ009-010-012-014-032>034-037-058>063-311600-
...CENTRAL COLORADO...

CITY           SKY/WX    TMP DP  RH WIND       PRES   REMARKS
ASPEN          MOSUNNY   34  20  56 SE5       30.32F WCI  30
BUENA VISTA    SUNNY     31  21  66 CALM      30.42S
COPPER MTN     MOSUNNY   45  -6  12 SW10G16   30.51R
BERTHOUD PASS  FAIR      34  32  93 W17G23    30.52S WCI  23
COTTONWOOD PAS SUNNY     36  21  55 CALM      30.45R
GUNNISON       SUNNY     25  14  63 CALM      30.44S
KREMMLING      MOSUNNY   27  21  80 CALM      30.39S
LEADVILLE      SUNNY     28  18  66 CALM      30.43S
MONARCH PASS   SUNNY     32  14  47 SW18      30.62R WCI  20
SALIDA         SUNNY     33  21  62 NW3       30.50S
SUNLIGHT       MOSUNNY   43  14  31 CALM      30.46R
WILKERSON PASS NOT AVBL
$$

COZ069>075-311600-
...SAN LUIS VALLEY/SANGRE DE CRISTO MOUNTAINS...

CITY           SKY/WX    TMP DP  RH WIND       PRES   REMARKS
ALAMOSA        PTSUNNY   34  21  59 CALM      30.43R
LA VETA PASS   SUNNY     34  21  60 SW10G20   30.47R WCI  26
SAGUACHE       MOSUNNY   34  18  51 NW9       30.45R WCI  26
$$

COZ035-036-038>040-311600-
...NORTHERN COLORADO FRONT RANGE...

CITY           SKY/WX    TMP DP  RH WIND       PRES   REMARKS
DENVER INTL AP PTSUNNY   37  28  70 W7        30.33R
DMNS CITY PARK   N/A     38  29  69 W3        30.33F
AURORA         PTSUNNY   37  28  70 N3        30.34R
FRONT RANGE AP NOT AVBL
ERIE MUNI ARPT PTSUNNY   35  32  88 CALM      30.34S
BOULDER MUN AP PTSUNNY   36  30  80 CALM      30.33S
CENTENNIAL     PTSUNNY   39  28  64 NW3       30.33R
BROOMFIELD     PTSUNNY   36  28  75 NW9       30.33S
FORT COLLINS   PTSUNNY   34  28  80 N7        30.35S WCI  28
LONGMONT       PTSUNNY   39  32  75 N7        30.36R
$$

COZ041-046-047-076>085-087-088-311600-
...PIKES PEAK/PALMER DIVIDE AND SOUTHERN FOOTHILLS...

CITY           SKY/WX    TMP DP  RH WIND       PRES   REMARKS
COLO. SPRINGS  PTSUNNY   35  28  75 SE8       30.42R WCI  29
A. F. ACADEMY  SUNNY     35  26  68 SE13      30.39R WCI  26
ELLICOTT       SUNNY     35  28  75 SE16G23   30.39S WCI  25
FALCON         MOSUNNY   32  28  85 S12       30.41R WCI  23
FORT CARSON    SUNNY     36  27  69 SE3       30.40S
LIMON          SUNNY     34  29  82 SE17G23   30.41R WCI  23
MONUMENT HILL  SUNNY     34  27  75 S24       30.33S WCI  21
TRINIDAD       SUNNY     43  25  49 NE7       30.38R
$$

COZ042>045-048>051-090-091-311600-
...NORTHEAST COLORADO...

CITY           SKY/WX    TMP DP  RH WIND       PRES   REMARKS
GREELEY ARPT   MOSUNNY   37  25  60 SE10      30.35S
AKRON          MOSUNNY   32  29  88 SE16      30.40S WCI  21
BURLINGTON     SUNNY     34  29  82 S12       30.47R WCI  25
WRAY           CLOUDY    32  29  90 E3        30.49R
STERLING       NOT AVBL
HOLYOKE        FOG       32  32 100 SE7       30.48R VSB<1/4 WCI  26
FORT MORGAN    SUNNY     35  30  80 SE9       30.39F WCI  28
$$

COZ086-089-092>099-311600-
...SOUTHEAST COLORADO...

CITY           SKY/WX    TMP DP  RH WIND       PRES   REMARKS
PUEBLO         SUNNY     39  29  67 E13       30.40S
LA JUNTA       SUNNY     40  30  67 E13       30.43S
LAMAR          SUNNY     38  30  73 E12       30.46S
SPRINGFIELD      N/A     38  31  76 SE9       30.47R
$$



USA.gov is the U.S. government's official web portal to all federal, state and local government web resources and services.